Location: Slemon Park
(46.4340°N, 63.8219°W)
Time: 00:03:36
(UTC-04:00)

Daily predictions for brighter satellites

Satellite Brightness Start Highest point End
(mag) Time Altitude Azimuth Time Altitude Azimuth Time Altitude Azimuth
Cosmos 1943 Rocket 4.4 03:49:23 17° NNE 03:50:46 18° NE 03:54:34 10° E
Cosmos 2237 Rocket 4.2 04:15:33 18° N 04:15:33 18° N 04:17:01 10° NNE
GEOS 3 Rocket 4.4 04:19:36 10° NE 04:23:24 47° NNE 04:23:24 47° NNE
Cosmos 2233 Rocket 4.3 04:21:28 20° N 04:25:46 62° ENE 04:31:50 10° SSE
Cosmos 2333 Rocket 4.3 04:31:26 15° N 04:31:26 15° N 04:32:33 10° N
Cosmos 2219 Rocket 4.5 04:33:09 12° N 04:33:09 12° N 04:33:40 10° N
IRS-1C Rocket 4.3 04:37:25 10° NNE 04:42:41 67° ESE 04:47:54 10° S
Cosmos 1703 Rocket 4.1 04:47:38 55° ESE 04:47:38 55° ESE 04:51:31 10° SSE
SL-16 R/B 2.9 04:51:17 39° N 04:51:17 39° N 04:55:11 10° NNE
Gbstr 26 Del rocket 4.2 04:51:27 35° NNE 04:51:27 35° NNE 04:54:20 10° ENE
USA 267 4.1 04:45:17 10° ENE 04:51:05 35° N 04:52:27 32° NNW
Meteor 2-3 Rocket 3.6 04:52:55 48° SSW 04:54:36 81° W 05:00:20 10° N
Cosmos 1606 4.0 04:56:00 35° SE 04:56:00 35° SE 04:58:25 10° SSE
Cosmos 1603 4.0 04:50:52 19° S 04:54:55 67° ESE 05:00:35 10° NNE
Okean-O 4.2 04:52:34 10° NNE 04:56:38 34° E 05:00:41 10° SSE
USA 32 3.9 04:55:15 10° S 05:00:28 87° W 05:05:45 10° N
Cosmos 2123 Rocket 4.2 05:07:17 46° NW 05:07:17 46° NW 05:12:34 10° N
NOSS 3-1 (C) 4.0 05:04:05 43° WNW 05:06:43 63° WSW 05:15:00 10° SSE
USA 116 4.4 05:01:28 10° SSE 05:06:50 84° WSW 05:09:54 27° NNW
Cosmos 2369 Rocket 2.2 05:05:53 33° NNW 05:08:29 78° ENE 05:14:05 10° SSE
CZ-4B R/B 3.1 05:03:18 10° N 05:08:56 67° WNW 05:13:01 19° SSW
Lacrosse 5 rocket 1.9 05:11:37 52° NNW 05:11:37 52° NNW 05:15:49 10° NE
Okean O Rocket 4.0 05:08:37 10° N 05:09:01 12° N 05:09:01 12° N
COSMO-SKYMED 1 2.8 05:10:03 10° SSE 05:14:20 67° ENE 05:17:20 20° N
ATLAS 2AS CENTAUR R/B 4.0 05:12:57 16° NNW 05:18:56 40° NE 05:26:04 10° ESE
Cosmos 1992 Rocket 4.1 05:19:42 49° WNW 05:19:42 49° WNW 05:24:45 10° NNE
Celestis-02/Orion 38 4.5 05:17:45 10° SSE 05:22:52 66° WSW 05:24:40 40° NW
Cosmos 1777 Rocket 4.1 05:22:55 19° NNW 05:26:43 78° ENE 05:31:55 10° SSE
Cosmos 1447 Rocket 4.5 05:21:35 10° SSW 05:27:48 60° WNW 05:34:00 10° N
Cosmos 405 Rocket 2.4 05:29:17 51° NNW 05:30:09 82° W 05:33:54 10° S
Cosmos 2034 Rocket 4.4 05:25:49 10° N 05:32:03 66° E 05:38:12 10° SSE
Cosmos 1782 3.1 05:32:38 46° SW 05:32:38 46° SW 05:35:54 10° S
NOSS 3-1 (A) 4.1 05:28:36 28° NW 05:32:53 60° WSW 05:41:07 10° SSE
Okean 1-7 2.9 05:31:54 28° NNW 05:34:05 65° W 05:38:22 10° S
Feng Yun 1-1 Rocket 4.4 05:28:58 10° NNE 05:34:56 87° ESE 05:40:51 10° SSW
Cosmos 1943 Rocket 2.2 05:30:57 17° NNW 05:35:28 81° ENE 05:41:08 10° SSE
Cosmos 968 Rocket 4.1 05:42:54 32° W 05:43:47 34° WSW 05:48:30 10° SSW
Abrixas rocket 2.0 05:44:27 62° W 05:44:54 82° SSW 05:48:07 10° ESE
NOAA 6 3.9 05:41:07 10° NNE 05:46:15 77° WNW 05:51:21 10° SSW
PAYLOAD A 4.2 05:42:21 10° NNE 05:47:39 83° ESE 05:53:03 10° SSW
ATLAS 5 CENTAUR R/B 1.7 05:48:57 10° SW 05:53:35 87° WNW 05:58:44 10° NE
EO 1 Del DPAF 3.6 05:50:03 10° S 05:53:42 42° W 05:55:16 27° NW
Cosmos 1943 3.1 05:50:09 10° SSW 05:55:51 78° WNW 06:01:34 10° NNE
Cosmos 2237 Rocket 4.1 05:57:23 12° NNW 05:57:23 12° NNW 05:59:06 10° NNW
SL-8 R/B 3.6 05:54:21 23° WSW 05:57:18 90° NNW 06:02:06 10° ENE
Cosmos 1464 Rocket 4.0 05:53:01 10° NNW 05:59:11 61° W 06:05:25 10° S
Cosmos 1733 Rocket 3.6 05:55:23 10° S 05:59:39 59° E 06:03:57 10° NNE
Cosmos 1825 3.0 06:01:38 27° WNW 06:01:38 27° WNW 06:04:35 10° NNW
SKYMED 2 4.0 05:58:24 10° SSW 06:02:28 39° W 06:05:55 14° NNW
Cosmos 1862 3.4 06:06:43 10° SSW 06:10:34 50° WNW 06:14:27 10° N
Thor Agena Rocket 3.5 06:08:28 10° SSE 06:13:33 86° WSW 06:18:38 10° NNW
SS 2 4.5 06:13:06 24° NW 06:14:39 65° SW 06:17:40 10° SSE
SAR-Lupe-3 4.5 06:12:36 10° SSE 06:16:10 88° WSW 06:19:47 10° NNW
Tsikada Rocket 4.0 06:11:57 10° S 06:18:14 90° WNW 06:24:28 10° N
IDEFIX/ARIANE 42P 2.6 06:15:03 10° N 06:20:07 56° WNW 06:25:11 10° SSW
Genesis I 3.1 06:17:00 10° SW 06:20:53 70° NW 06:24:51 10° NNE
COSMOS 2441 4.4 06:19:00 10° NNE 06:23:56 85° WNW 06:28:49 10° SSW
BREEZE-M DEB (TANK) 3.2 06:22:37 16° W 06:25:21 72° SSW 06:30:11 10° ESE
Cosmos 332 Rocket 4.2 06:26:37 10° S 06:31:22 69° ESE 06:36:10 10° NNE
Okean-O 3.5 06:29:16 10° N 06:33:00 27° WNW 06:36:43 10° WSW
USA 267 3.9 06:27:04 10° E 06:33:16 47° NNE 06:39:28 10° NW
SL-16 R/B 3.9 06:33:13 11° NW 06:35:07 13° NW 06:37:39 10° N
Meteor 1-27 Rocket 4.4 06:30:43 10° NNW 06:35:58 35° W 06:41:05 10° SSW
Gbstr 26 Del rocket 3.1 06:34:01 12° WNW 06:37:50 59° NNE 06:41:36 10° E
Cosmos 1812 2.7 06:34:31 10° N 06:38:25 89° E 06:42:18 10° S
Cosmos 1484 Rocket 2.9 06:35:35 10° NNE 06:39:38 86° ESE 06:43:39 10° SSW
Lacrosse 4 Rocket 1.4 06:35:22 10° SW 06:39:42 69° WNW 06:43:57 10° NNE
Okean 3 3.4 06:38:30 10° NNW 06:42:42 73° W 06:46:55 10° S
CZ-2C R/B 2.8 06:37:55 10° N 06:42:51 45° WNW 06:47:39 10° SW
MSX 3.9 06:39:05 10° N 06:44:45 59° WNW 06:50:24 10° SSW
CZ-4 R/B 1.9 06:41:48 10° NNE 06:45:44 65° ESE 06:49:42 10° S
COSMO-SKYMED 1 4.4 06:48:53 10° WSW 06:50:58 13° W 06:53:04 10° WNW
Lacrosse 5 rocket 3.0 06:47:33 10° WNW 06:51:20 24° N 06:55:07 10° NE
Cosmos 2369 Rocket 3.7 06:48:21 10° WNW 06:51:48 17° W 06:55:15 10° SW
ERS-2 4.1 06:50:28 10° NNE 06:53:53 35° E 06:57:16 10° SSE
CORIOLIS 4.4 06:51:44 10° NNE 06:57:11 80° ESE 07:02:33 10° SSW
Meteor 1-25 Rocket 4.4 06:53:38 10° S 06:59:22 85° E 07:05:13 10° NNE
Cosmos 1674 Rocket 4.2 06:56:27 10° NNW 07:00:23 34° W 07:04:17 10° SSW
Cosmos 2208 Rocket 4.0 06:55:44 10° SSW 07:00:56 73° WNW 07:06:08 10° NNE
Cosmos 2279 Rocket 4.3 06:55:31 10° N 07:01:50 77° E 07:08:04 10° SSE
